Location: Hochstatterhof
(48.7256°N, 10.3487°E)
Time: 03:18:16
(UTC+00:00)

COSMOS 2406 - Pass Details

Date: 26 September 2023
Orbit: 843 x 863 km, 71.0° (Epoch: 04 December)

Event Time Altitude Azimuth Distance (km) Brightness Sun altitude
Exits shadow 02:14:17 58° 325° (NW) 1,003 3.5 -28.2°
Drops below altitude 10° 02:19:33 10° 23° (NNE) 2,513 6.4 -27.5°
Sets 02:22:03 0° 27° (NNE) 3,452 7.3 -27.1°
